Regional Weather Roundup
Issued by NWS Albany, NY

Home | Current Version | Previous Version | Graphics & Text | Print | Product List | Glossary On
Versions: 1 2 3 4 5 6 7 8 9 10 11 12 13 14 15 16 17 18 19 20 21 22 23 24 25 26 27 28 29 30 31 32 33 34 35 36 37 38 39 40 41 42 43 44 45 46 47 48 49 50
306
ASUS41 KALY 220110
RWRALY

NEW YORK STATE HOURLY WEATHER ROUNDUP
NATIONAL WEATHER SERVICE ALBANY NY
800 PM EST SUN JAN 21 2018

NOTE: "FAIR" INDICATES FEW OR NO CLOUDS BELOW 12,000 FEET WITH NO
SIGNIFICANT WEATHER AND/OR NO OBSTRUCTIONS TO VISIBILITY.

NYZ032-033-038>043-046>054-057>066-NYZ062>081-082-084-220200-
EAST


CITY           SKY/WX    TMP DP  RH WIND       PRES   REMARKS
ALBANY         CLOUDY    30  25  81 CALM      30.18S
GLENS FALLS    FAIR      28  26  92 CALM      30.16S
POUGHKEEPSIE   CLOUDY    35  29  78 CALM      30.16S
MONTGOMERY     CLOUDY    36  31  82 CALM      30.14S
WHITE PLAINS   MOCLDY    40  30  67 CALM      30.16R
ISLIP          CLOUDY    39  31  72 CALM      30.18S
NEW YORK CITY  CLOUDY    47  33  58 S7        30.18R
CENTRAL PARK   CLOUDY    50  33  52 CALM      30.20R
$$

NYZ005>009-017-018-044>046-055-056-220200-
CENTRAL


CITY           SKY/WX    TMP DP  RH WIND       PRES   REMARKS
FULTON         CLOUDY    38  30  73 E5        30.11S WCI  34
SYRACUSE       CLOUDY    36  31  82 E6        30.11S WCI  31
ROME           CLOUDY    37  30  75 E7        30.15S WCI  32
ELMIRA         CLOUDY    35  35 100 CALM      30.10S FOG
BINGHAMTON     LGT RAIN  35  33  92 S7        30.08F FOG     WCI  29
MONTICELLO     MIX PCPN  37  35  92 CALM      30.15R FOG
$$

NYZ026>034-041>043-087-220200-
NORTH


CITY           SKY/WX    TMP DP  RH WIND       PRES   REMARKS
WATERTOWN      MOCLDY    33  31  92 CALM      30.12S
FORT DRUM      NOT AVBL
OGDENSBURG     FAIR      33  31  90 NE3       30.14S
MASSENA        CLOUDY    32  27  81 NE7       30.17S WCI  26
SARANAC LAKE   CLOUDY    32  31  96 CALM      30.07S
PLATTSBURGH    CLOUDY    31  22  69 NW5       30.18R WCI  26
$$

NYZ001>004-010>016-019>021-085-220200-
WEST


CITY           SKY/WX    TMP DP  RH WIND       PRES   REMARKS
NIAGARA FALLS  CLOUDY    38  36  92 CALM      30.07S VSB 1
BUFFALO        DRIZZLE   38  37  97 CALM      30.07S FOG
DUNKIRK        CLOUDY    43  36  76 E3        30.07S HAZE
JAMESTOWN      FOG       38  37  97 S5        30.04S VSB 1/4 WCI  34
WELLSVILLE     CLOUDY    40  39  97 SW5       30.06S FOG
ROCHESTER      CLOUDY    38  34  85 CALM      30.09S
PENN YAN       CLOUDY    37  32  82 CALM      30.09S HAZE
$$

             KEY
       WCI = WIND CHILL INDEX
       VSB = VISIBILITY
       HX  = HEAT INDEX
$$




USA.gov is the U.S. government's official web portal to all federal, state and local government web resources and services.